www.pogodaiklimat.ru

Погода и климат >> Архив погоды >> Филиппины >> Лаоак


ПОГОДА в Лаоаке

  • Прогноз погоды в Лаоаке
  • Монитор погоды в Лаоаке

АРХИВ ПОГОДЫ в Лаоаке

Время (UTC), дата Ветер
(напр.,м/с)
 
Видим.   Явления Облачность Т
(С)
Тd
(С)
f
(%)
Тe
(С)
Тes
(С)
Комфортность P
(гПа)
Po
(гПа)
Тmin
(С)
Tmax
(С)
R
(мм)
R24
(мм)
S
(см)
03 10.09 ЮЗ 5 10 км мгла {дождь, туман} 8/3 540 м
[Cu Sc Ac As Cs]
+27.6 +24.7 84 +39 +44 очень
душно
1010.0 1009.4 0.2
06 10.09 З 6 7000 м слаб. дождь {туман} 9/4 500 м
[Cb cap Ac As]
+27.4 +23.9 81 +38 +39 очень
душно
1008.7 1008.1 0.3
09 10.09 ЮЗ 5 8000 м слаб. дождь {туман} 9/5 540 м
[Cu Sc Ac As]
+26.8 +24.4 87 +38 +38 очень
душно
1009.1 1008.5 0.0
12 10.09 ЮВ 2 8000 м слаб. дождь {туман} 10/5 540 м
[Cu Sc Ac As]
+24.6 +23.2 92 +33 +33 очень
душно
1010.9 1010.3 +29.4 0.0
15 10.09 Ю 1 8000 м {дождь} 10/4 540 м
[Cu Sc Ac As]
+24.5 +23.6 95 +33 +33 очень
душно
1011.5 1010.9 0.0
18 10.09 В 1 3000 м дымка {дождь} 3/1 540 м
[Cu Sc Cs]
+23.8 +23.6 99 +32 +32 очень
душно
1010.8 1010.2 0.0
21 10.09 В 1 10 км 10/4 540 м
[Cu Sc Ac As]
+23.8 +23.6 99 +32 +32 очень
душно
1010.4 1009.8
00 11.09 Ю 1 10 км мгла {туман} 4/1 540 м
[Cu Sc Cs]
+26.2 +23.4 85 +36 +41 очень
душно
1011.1 1010.5 +23.5 0.3
03 11.09 СЗ 4 12 км мгла {туман} 4/1 540 м
[Cu med, cong Ac cuf Cs]
+29.4 +24.4 75 +42 +51 опасность
перегрева
1011.0 1010.4
06 11.09 С 3 10 км мгла {туман} 9/5 500 м
[Cb cap Ac As]
+29.6 +25.2 77 +43 +46 опасность
перегрева
1009.2 1008.6
09 11.09 С 2 8000 м осадки на расстоянии {туман} 9/5 540 м
[Cu Sc Ac As]
+28.4 +25.2 83 +41 +42 опасность
перегрева
1008.5 1007.9
12 11.09 В 2 10 км {туман} 8/3 540 м
[Cu Sc Ac As Cs]
+27.4 +25.0 87 +39 +39 очень
душно
1008.8 1008.2 +29.6
15 11.09 В 1 10 км {дождь} 9/3 540 м
[Cu Sc Ac As Cs]
+28.8 +25.4 82 +42 +42 опасность
перегрева
1009.1 1008.5 1
18 11.09 В 1 10 км {дождь} 10/4 540 м
[Cu Sc Ac As]
+25.4 +24.9 97 +36 +36 очень
душно
1007.5 1006.9 1
21 11.09 В 1 10 км 6/3 540 м
[Cu Sc Cs]
+24.6 +24.0 96 +34 +34 очень
душно
1006.4 1005.8
00 12.09 СВ 2 10 км мгла {туман} 9/3 540 м
[Cu Sc Ac cuf Cs]
+27.4 +25.6 90 +40 +43 очень
душно
1006.5 1005.9 +24.4 1
03 12.09 С 5 8000 м в посл. час ливневой дождь {туман} 9/4 540 м
[Cu Sc Ac As]
+28.6 +24.1 77 +40 +43 очень
душно
1006.6 1006.0 0.0
06 12.09 С 4 10 км мгла {туман} 9/3 540 м
[Cu Sc Ac As]
+29.8 +25.9 80 +45 +48 опасность
перегрева
1004.6 1004.0 0.0
09 12.09 СВ 4 7000 м в посл. час ливневой дождь {туман} 10/4 500 м
[Cb cap Ac As Cs]
+28.7 +25.3 82 +42 +42 опасность
перегрева
1004.6 1004.0 1
12 12.09 СВ 2 8000 м {ливн. осадки, туман} 10/3 540 м
[Cu Sc Ac As Cs]
+26.1 +24.8 93 +37 +37 очень
душно
1005.6 1005.0 +30.2 1
15 12.09 СВ 2 10 км 9/1 540 м
[Cu Sc Ac As Cs]
+26.1 +24.1 89 +36 +36 очень
душно
1005.4 1004.8
18 12.09 С 2 10 км 9/1 540 м
[Cu med, cong Cs]
+26.4 +23.4 84 +36 +36 очень
душно
1003.8 1003.2
21 12.09 СВ 2 10 км 3/1 540 м
[Cu med, cong Cs]
+25.4 +22.4 83 +33 +33 очень
душно
1003.4 1002.8
00 13.09 штиль 0 12 км мгла {туман} 9/1 540 м
[Cu med, cong Cs]
+27.4 +22.8 76 +36 +42 очень
душно
1004.9 1004.3 +25.4 1
03 13.09 СЗ 2 12 км мгла {туман} 5/1 540 м
[Cu med, cong Cs]
+32.0 +24.3 64 +44 +60 опасность
перегрева
1005.0 1004.4
06 13.09 С 5 12 км мгла {туман} 8/3 540 м
[Cu med, cong Cs]
+32.6 +25.0 64 +46 +51 опасность
перегрева
1002.8 1002.2
09 13.09 Ю 4 8000 м гроза, ливневой дождь 9/5 500 м
[Cb cap Ac As Cs]
+30.8 +25.7 74 +45 +46 опасность
перегрева
1003.3 1002.7
12 13.09 В 2 10 км {гроза, ливн. осадки} 5/1 540 м
[Cu med, cong Cs]
+27.5 +25.7 90 +41 +41 опасность
перегрева
1006.2 1005.6 +33.1 0.1
15 13.09 З 1 10 км 6/1 540 м
[Cu Sc Cs]
+27.3 +25.3 89 +40 +40 очень
душно
1007.2 1006.6
18 13.09 штиль 0 10 км 1/1 540 м
[Cu med, cong]
+25.2 +24.4 95 +35 +35 очень
душно
1006.5 1005.9
21 13.09 штиль 0 10 км 1/1 540 м
[Cu med, cong]
+24.6 +23.8 95 +33 +33 очень
душно
1006.5 1005.9
00 14.09 ЮВ 1 12 км мгла {туман} 6/1 540 м
[Cu hum Cs]
+27.0 +23.8 83 +37 +42 очень
душно
1007.3 1006.7 +24.2 0.1
03 14.09 З 4 12 км мгла {туман} 3/1 540 м
[Cu med, cong Cs]
+30.2 +25.0 74 +44 +55 опасность
перегрева
1007.3 1006.7
06 14.09 СЗ 5 12 км мгла {туман} 4/3 540 м
[Cu med, cong Cs]
+30.8 +24.8 70 +44 +49 опасность
перегрева
1006.3 1005.7
09 14.09 СЗ 3 10 км мгла {туман} 9/5 500 м
[Cb cap Ac cuf Ci sp]
+29.5 +25.6 80 +44 +44 опасность
перегрева
1006.0 1005.4
12 14.09 ЮВ 1 10 км гроза без осадков {ливн. осадки} 10/3 500 м
[Cu hum Ac cast Cs]
+26.2 +24.5 90 +37 +37 очень
душно
1008.1 1007.5 +31.0 0.0
15 14.09 В 1 10 км 4/3 500 м
[Cb cap Cs]
+25.4 +24.3 94 +35 +35 очень
душно
1008.8 1008.2
18 14.09 Ю 1 10 км {гроза} 1/1 540 м
[Cu med, cong Cs]
+24.5 +23.6 95 +33 +33 очень
душно
1007.8 1007.2
21 14.09 В 1 10 км 1/1 540 м
[Cu hum]
+24.4 +24.0 98 +34 +34 очень
душно
1007.3 1006.7
00 15.09 штиль 0 10 км мгла {туман} 1/1 540 м
[Cu hum Cs]
+26.4 +24.3 88 +37 +43 очень
душно
1008.2 1007.6 +24.4 0.0
03 15.09 З 5 12 км мгла {туман} 4/3 540 м
[Cu med, cong Cs]
+29.2 +25.0 78 +42 +49 опасность
перегрева
1007.8 1007.2
06 15.09 З 5 12 км мгла {туман} 4/4 540 м
[Cu med, cong Cs]
+30.2 +25.2 75 +44 +49 опасность
перегрева
1005.2 1004.6
09 15.09 З 3 10 км осадки на расстоянии {туман} 8/8 500 м
[Cb cap Ac cuf]
+29.5 +24.9 76 +42 +42 опасность
перегрева
1004.8 1004.2
12 15.09 С 2 10 км зарница {туман} 6/4 500 м
[Cb cap Ac cuf Cs]
+28.3 +25.0 82 +41 +41 опасность
перегрева
1006.6 1006.0 +30.2
15 15.09 Ю 2 10 км в посл. час ливневой дождь 5/1 540 м
[Cu Sc Ac cuf Cs]
+25.6 +24.5 94 +36 +36 очень
душно
1007.3 1006.7 0.1
18 15.09 В 1 9000 м {ливн. осадки} 3/1 540 м
[Cu Sc Cs]
+24.8 +24.6 99 +35 +35 очень
душно
1006.1 1005.5 0.1
21 15.09 В 1 8000 м дымка 4/1 540 м
[Cu Sc Cs]
+24.2 +24.0 99 +33 +33 очень
душно
1006.1 1005.5
00 16.09 В 1 10 км мгла {туман} 3/1 500 м
[Cb calv Ci sp]
+26.6 +24.2 87 +37 +42 очень
душно
1006.6 1006.0 +23.8 0.1
03 16.09 З 4 12 км мгла {туман} 8/3 540 м
[Cu med, cong Ac As Cs]
+29.8 +24.2 72 +42 +47 опасность
перегрева
1006.6 1006.0
06 16.09 СЗ 2 10 км мгла {туман} 9/3 500 м
[Cb calv Ac As]
+30.6 +25.1 73 +44 +49 опасность
перегрева
1004.5 1003.9
09 16.09 ЮЗ 1 8000 м в посл. час дождь {туман} 10/6 500 м
[Cb calv Ac As]
+26.6 +24.5 88 +37 +38 очень
душно
1004.6 1004.0 14
12 16.09 В 2 8000 м слаб. дождь {туман} 10/5 540 м
[Cu Sc Ac As]
+26.2 +25.0 93 +37 +37 очень
душно
1005.2 1004.6 +31.2 14
15 16.09 В 1 10 км {дождь, туман} 10/3 540 м
[Cu Sc Ac As]
+25.7 +25.0 96 +37 +37 очень
душно
1005.5 1004.9 0.2
18 16.09 СВ 1 10 км слаб. дождь 10/4 540 м
[Cu Sc As op]
+25.0 +23.9 94 +34 +34 очень
душно
1005.2 1004.6 0.4
21 16.09 В 1 10 км {дождь} 10/4 540 м
[Cu Sc Ac As]
+25.0 +24.8 99 +35 +35 очень
душно
1005.2 1004.6 0.1
00 17.09 ЮВ 2 8000 м мгла {дождь, туман} 10/5 540 м
[Cu Sc Ac As]
+26.2 +25.2 94 +38 +39 очень
душно
1007.1 1006.5 +24.5 14

 

Местоположение метеостанции Лаоак (Филиппины): широта 18.18 долгота 120.53 высота над уровнем моря 5 м.

В архиве по умолчанию представлена погода в Лаоаке за последнюю неделю. Архивные данные за месяц целиком и за предыдущие месяцы, начиная с января 2011 года, Вы можете получить, выбрав интересующий диапазон дат из раскрывающегося списка и нажав кнопку "Ввод!".


*Определитесь, кто Вы:
робот инопланетянин человек

Внимание! Время в таблицах - всемирное. Для получения местного времени необходимо прибавить поправку, которая равна 8 ч.

Смотрите также архив погоды в соседних городах и на ближайших метеорологических станциях:

Погода в Синайте (Филиппины) (34 км)
Погода в Апари (Филиппины) (118 км)
Погода в Тугегарао (Филиппины) (141 км)
Погода в Калаяне (Филиппины) (157 км)
Погода в Багио (Филиппины) (196 км)
Погода в Дагупане (Филиппины) (238 км)
Погода в Касигуране (Филиппины) (270 км)
Погода на Баско Радар (Филиппины) (291 км)
Погода в Балер Радар (Филиппины) (295 км)
Погода в Кабанатуане (Филиппины) (304 км)

Пояснения к столбцам:

Ветер - указаны скорость ветра в м/с - средняя за 10 мин, порывы в срок и между сроками (в фигурных скобках) и направление, откуда дует ветер: С - северный, СВ - северо-восточный, В - восточный, ЮВ - юго-восточный, Ю - южный, ЮЗ - юго-западный, З - западный, СЗ - северо-западный.
Видимость - горизонтальная дальность видимости в метрах или километрах. При видимости от 1 до 10 км при отсутствии осадков обычно наблюдается дымка, при ухудшении видимости до 1 км и менее - туман. В сухую погоду видимость может ухудшаться дымом, пылью или мглою.
Явления - указаны атмосферные явления, наблюдавшиеся в срок или в последний час перед сроком; фигурными скобками обозначены явления, наблюдавшиеся между сроками (за 1-3 часа до срока); квадратными скобками обозначены град или гололедные отложения с указанием их диаметра в мм.
Облачность - указаны через наклонную черту общая и нижняя облачность в баллах и высота нижней границы облаков в метрах; квадратными скобками обозначены формы облаков: Ci - перистые, Cs - перисто-слоистые, Cc - перисто-кучевые, Ac - высококучевые, As - высокослоистые, Sc - слоисто-кучевые, Ns - слоисто-дождевые, Cu - кучевые, Cb - кучево-дождевые. Подробнее классификацию облаков см. в Атласе облаков (PDF).
T - Температура воздуха - температура, измеренная на высоте 2 м над землей.
Td - Температура точки росы - температура, при понижении до которой содержащийся в воздухе водяной пар достигнет насыщения.
f - Относительная влажность воздуха - влажноcть воздуха, измеренная на высоте 2 м над землей.
Te - Эффективная температура - температура, которую ощущает одетый по сезону человек в тени. Характеристика душности погоды. При расчете учитывается влияние влажности воздуха и скорости ветра на теплоощущения человека.
Tes - Эффективная температура на солнце - температура, которую ощущает человек, с поправкой на солнечный нагрев. Характеристика знойности погоды. Зависит от высоты солнца над горизонтом, облачности и скорости ветра. Ночью, в пасмурную погоду, а также при ветре 12 м/с и более поправка равна нулю.
P - Атмосферное давление - приведенное к уровню моря атмосферное давление.
Po - Атмосферное давление - измеренное на уровне метеостанции атмосферное давление.
Tmin - Минимальная температура - минимум температуры воздуха на высоте 2 м над землей.
Tmax - Максимальная температура - максимум температуры воздуха на высоте 2 м над землей.
R - Количество осадков - Количество выпавших осадков за период времени, мм. При наведении курсора мыши на число - период времени, за который выпало указанное количество осадков.
R24 - Количество осадков - Количество выпавших осадков за 24 часа, мм.
S - Снежный покров - Высота снежного покрова, см. При наведении курсора мыши на число - состояние снежного покрова и степень покрытия местности в баллах.